Barnwell, SC

7:55 PM EST on November 21, 2019 (GMT -0500)
Barnwell County

Weather History for KBNL - September, 2019

Change the Weather History Date:

Monday, September 9, 2019

  Actual Average (KOGB) Record (KOGB)
Temperature  
Mean Temperature 86 °F 77 °F  
Max Temperature 96 °F 87 °F 99 °F (1954)
Min Temperature 75 °F 67 °F 53 °F (1956)
Degree Days  
Heating Degree Days 0 0  
Month to date heating degree days 0  
Since 1 July heating degree days 0  
Cooling Degree Days 20 12  
Month to date cooling degree days 112  
Year to date cooling degree days 1805  
Growing Degree Days 36 (Base 50)    
Moisture  
Dew Point 74 °F    
Average Humidity 73    
Maximum Humidity 100    
Minimum Humidity 41    
Precipitation  
Precipitation 0.00 in 0.12 in 4.03 in (1988)
Month to date precipitation 1.25  
Year to date precipitation 34.56  
Sea Level Pressure  
Sea Level Pressure 30.10 in    
Wind  
Wind Speed 3 mph (SE)    
Max Wind Speed 13 mph    
Max Gust Speed 15 mph    
Visibility 9 miles    
Events Thunderstorm    
T = Trace of Precipitation, MM = Missing Value Source: NWS Daily Summary

Daily Weather History Graph

Daily Weather History Graph

Search for Another Location

Airport or City:

Astronomy

Sep. 09, 2019 Rise Set
Actual Time 7:04 AM EDT 7:40 PM EDT
Civil Twilight 6:39 AM EDT 8:05 PM EDT
Nautical Twilight 6:10 AM EDT 8:34 PM EDT
Astronomical Twilight 5:40 AM EDT 9:04 PM EDT
Moon 5:21 PM EDT (9/9) 2:49 AM EDT (9/9)
Length of Visible Light 13h 25m
Length of Day
12h 35m
Waxing Gibbous, 83% of the Moon is Illuminated
Sep 9
Waxing Gibbous
Sep 14
Full
Sep 21
Last Quarter
Sep 28
New
Oct 5
First Quarter

Hourly Weather History & Observations

Time (EDT) Temp. Heat Index Dew Point Humidity Pressure Visibility Wind Dir Wind Speed Gust Speed Precip Events Conditions
12:15 AM 78.8 °F - 75.2 °F 89% 30.06 in 10.0 mi Calm Calm - N/A   Clear
12:35 AM 78.8 °F - 75.2 °F 89% 30.05 in 10.0 mi ESE 4.6 mph - N/A   Clear
12:55 AM 78.8 °F - 75.2 °F 89% 30.05 in 10.0 mi SE 4.6 mph - N/A   Clear
1:55 AM 77.0 °F - 75.2 °F 94% 30.05 in 10.0 mi SE 3.5 mph - N/A   Clear
2:15 AM 77.0 °F - 75.2 °F 94% 30.05 in 10.0 mi Calm Calm - N/A   Mostly Cloudy
2:35 AM 77.0 °F - 75.2 °F 94% 30.05 in 10.0 mi ESE 3.5 mph - N/A   Mostly Cloudy
2:55 AM 77.0 °F - 75.2 °F 94% 30.04 in 10.0 mi ESE 3.5 mph - N/A   Overcast
3:15 AM 77.0 °F - 75.2 °F 94% 30.04 in 10.0 mi Calm Calm - N/A   Overcast
3:35 AM 77.0 °F - 75.2 °F 94% 30.05 in 7.0 mi Calm Calm - N/A   Overcast
3:55 AM 77.0 °F - 75.2 °F 94% 30.05 in 6.0 mi Calm Calm - N/A   Overcast
4:15 AM 77.0 °F - 75.2 °F 94% 30.05 in 6.0 mi SE 3.5 mph - N/A   Overcast
4:35 AM 77.0 °F - 75.2 °F 94% 30.05 in 6.0 mi SE 4.6 mph - N/A   Overcast
5:15 AM 77.0 °F - 75.2 °F 94% 30.06 in 5.0 mi ESE 3.5 mph - N/A   Overcast
5:35 AM 77.0 °F - 75.2 °F 94% 30.06 in 6.0 mi Calm Calm - N/A   Overcast
5:55 AM 77.0 °F - 75.2 °F 94% 30.07 in 6.0 mi SSE 3.5 mph - N/A   Overcast
6:15 AM 75.2 °F - 75.2 °F 100% 30.07 in 5.0 mi Calm Calm - N/A   Overcast
6:35 AM 75.2 °F - 75.2 °F 100% 30.08 in 5.0 mi SSE 3.5 mph - N/A   Overcast
6:55 AM 75.2 °F - 75.2 °F 100% 30.08 in 5.0 mi Calm Calm - N/A   Mostly Cloudy
7:15 AM 75.2 °F - 75.2 °F 100% 30.08 in 3.0 mi Calm Calm - N/A   Scattered Clouds
7:35 AM 75.2 °F - 75.2 °F 100% 30.09 in 4.0 mi Calm Calm - N/A   Clear
7:55 AM 75.2 °F - 75.2 °F 100% 30.11 in 5.0 mi Calm Calm - N/A   Clear
8:15 AM 77.0 °F - 75.2 °F 94% 30.11 in 7.0 mi Calm Calm - N/A   Clear
8:35 AM 78.8 °F - 75.2 °F 89% 30.12 in 9.0 mi Calm Calm - N/A   Clear
8:55 AM 78.8 °F - 75.2 °F 89% 30.12 in 10.0 mi SSE 4.6 mph - N/A   Clear
9:15 AM 80.6 °F 86.2 °F 75.2 °F 84% 30.13 in 10.0 mi Variable 3.5 mph - N/A   Clear
9:35 AM 82.4 °F 89.5 °F 75.2 °F 79% 30.13 in 10.0 mi Variable 3.5 mph - N/A   Clear
9:55 AM 84.2 °F 92.3 °F 75.2 °F 74% 30.13 in 10.0 mi SW 4.6 mph - N/A   Clear
10:35 AM 86.0 °F 95.1 °F 75.2 °F 70% 30.14 in 10.0 mi Calm Calm - N/A   Clear
10:55 AM 87.8 °F 97.6 °F 75.2 °F 66% 30.14 in 10.0 mi Calm Calm - N/A   Clear
11:15 AM 89.6 °F 99.8 °F 75.2 °F 62% 30.13 in 10.0 mi Calm Calm - N/A   Clear
11:35 AM 91.4 °F 102.5 °F 75.2 °F 59% 30.13 in 10.0 mi Calm Calm - N/A   Clear
11:55 AM 91.4 °F 102.5 °F 75.2 °F 59% 30.13 in 10.0 mi Calm Calm - N/A   Clear
12:15 PM 93.2 °F 105.0 °F 75.2 °F 56% 30.12 in 10.0 mi Calm Calm - N/A   Clear
12:35 PM 93.2 °F 105.0 °F 75.2 °F 56% 30.12 in 10.0 mi Calm Calm - N/A   Clear
12:55 PM 93.2 °F 102.4 °F 73.4 °F 52% 30.12 in 10.0 mi Calm Calm - N/A   Clear
1:15 PM 95.0 °F 107.4 °F 75.2 °F 53% 30.11 in 10.0 mi Calm Calm - N/A   Partly Cloudy
1:35 PM 95.0 °F 104.5 °F 73.4 °F 49% 30.11 in 10.0 mi Calm Calm - N/A   Scattered Clouds
1:55 PM 95.0 °F 104.5 °F 73.4 °F 49% 30.09 in 10.0 mi SE 3.5 mph - N/A   Clear
2:15 PM 95.0 °F 103.2 °F 71.6 °F 47% 30.09 in 10.0 mi Calm Calm - N/A   Clear
2:35 PM 96.8 °F 105.1 °F 71.6 °F 44% 30.07 in 10.0 mi Variable 6.9 mph - N/A Thunderstorm Clear
2:55 PM 96.8 °F 103.1 °F 69.8 °F 41% 30.07 in 10.0 mi Calm Calm - N/A Thunderstorm Mostly Cloudy
3:15 PM 95.0 °F 103.2 °F 71.6 °F 47% 30.07 in 10.0 mi SE 8.1 mph - N/A Thunderstorm Mostly Cloudy
3:35 PM 93.2 °F 102.4 °F 73.4 °F 52% 30.08 in 10.0 mi SSE 5.8 mph - N/A Thunderstorm Clear
3:55 PM 91.4 °F 98.4 °F 71.6 °F 52% 30.08 in 10.0 mi SSE 12.7 mph - N/A Thunderstorm Thunderstorm
4:15 PM 91.4 °F 98.4 °F 71.6 °F 52% 30.08 in 10.0 mi South 9.2 mph - N/A   Partly Cloudy
4:35 PM 93.2 °F 100.5 °F 71.6 °F 49% 30.08 in 10.0 mi SSE 10.4 mph - N/A   Clear
4:55 PM 91.4 °F 96.8 °F 69.8 °F 49% 30.07 in 10.0 mi South 9.2 mph - N/A   Clear
5:15 PM 91.4 °F 96.8 °F 69.8 °F 49% 30.08 in 10.0 mi South 5.8 mph - N/A   Clear
5:35 PM 91.4 °F 96.8 °F 69.8 °F 49% 30.08 in 10.0 mi South 6.9 mph - N/A Thunderstorm Clear
5:55 PM 89.6 °F 98.2 °F 73.4 °F 59% 30.08 in 10.0 mi SSE 8.1 mph 15.0 mph N/A Thunderstorm Clear
6:15 PM 87.8 °F 93.8 °F 71.6 °F 58% 30.09 in 10.0 mi SSE 5.8 mph - N/A   Clear
6:35 PM 89.6 °F 96.2 °F 71.6 °F 55% 30.09 in 10.0 mi Calm Calm - N/A   Clear
6:55 PM 87.8 °F 93.8 °F 71.6 °F 58% 30.09 in 10.0 mi Calm Calm - N/A   Clear
7:15 PM 86.0 °F 91.8 °F 71.6 °F 62% 30.10 in 10.0 mi ENE 3.5 mph - N/A   Partly Cloudy
7:35 PM 86.0 °F 91.8 °F 71.6 °F 62% 30.11 in 10.0 mi SE 6.9 mph - N/A   Scattered Clouds
7:55 PM 84.2 °F 89.6 °F 71.6 °F 66% 30.11 in 10.0 mi ESE 6.9 mph - N/A   Clear
8:15 PM 84.2 °F 89.6 °F 71.6 °F 66% 30.11 in 10.0 mi SE 6.9 mph - N/A   Scattered Clouds
8:35 PM 84.2 °F 89.6 °F 71.6 °F 66% 30.12 in 10.0 mi SE 5.8 mph - N/A   Mostly Cloudy
9:15 PM 82.4 °F 87.2 °F 71.6 °F 70% 30.12 in 10.0 mi ESE 5.8 mph - N/A   Scattered Clouds
9:35 PM 82.4 °F 87.2 °F 71.6 °F 70% 30.14 in 10.0 mi ESE 5.8 mph - N/A   Mostly Cloudy
9:55 PM 82.4 °F 87.2 °F 71.6 °F 70% 30.15 in 10.0 mi SE 5.8 mph - N/A   Overcast
10:15 PM 80.6 °F 85.4 °F 73.4 °F 79% 30.15 in 10.0 mi SSE 5.8 mph - N/A   Overcast
10:35 PM 80.6 °F 85.4 °F 73.4 °F 79% 30.16 in 10.0 mi Calm Calm - N/A   Overcast
10:55 PM 78.8 °F - 73.4 °F 83% 30.16 in 10.0 mi ESE 4.6 mph - N/A   Mostly Cloudy
11:15 PM 78.8 °F - 73.4 °F 83% 30.17 in 10.0 mi Calm Calm - N/A   Mostly Cloudy
11:35 PM 78.8 °F - 73.4 °F 83% 30.17 in 10.0 mi SSE 3.5 mph - N/A   Scattered Clouds
11:55 PM 78.8 °F - 73.4 °F 83% 30.17 in 10.0 mi Calm Calm - N/A   Mostly Cloudy